Theta_e
300 300 300 303 304 307 308 308 308 309 311 310 309 309 310 310 306 303 308 311 311 313 315 317 319 320 322 324 325 326 328 329 329 329 329 329 330 332 332 333 334 334 335 336 338 340 342 343 344 345 346 347 350 353 356 359 360 359 360 358 358 357 358 359 358 359 360 359 360 360 361 362 361 360 359 359 358 359 360 359 357 358 358 358 358 360 361
300 302 302 305 305 308 308 308 308 309 311 310 311 311 312 311 307 307 307 307 310 314 315 318 320 322 323 324 327 327 325 326 327 327 326 327 328 330 331 332 333 334 335 336 337 339 340 341 341 343 344 345 348 349 352 355 357 359 360 359 358 359 358 359 360 360 357 359 360 361 361 361 361 361 359 359 357 358 358 358 359 361 360 360 358 359 359
300 303 304 306 306 306 306 308 309 309 310 310 311 311 310 311 308 307 304 306 310 317 321 320 322 322 322 322 321 323 324 326 325 324 324 325 326 328 329 330 331 331 332 332 333 334 335 336 338 341 343 344 345 347 350 352 352 355 356 356 357 357 356 360 362 361 359 359 360 360 360 361 361 360 358 358 358 358 359 359 359 362 361 359 358 357 358
297 302 304 304 305 305 305 305 306 307 307 307 309 309 310 307 305 305 303 301 307 316 321 321 320 319 318 317 318 320 323 324 323 322 323 323 324 325 327 328 328 329 329 329 330 331 332 333 334 336 338 341 344 344 347 348 351 353 353 353 353 354 355 355 353 350 351 353 354 357 357 358 359 360 360 359 359 360 359 358 362 361 358 359 361 359 358
295 301 304 302 303 302 298 301 306 308 310 312 312 314 314 313 309 303 300 302 312 317 321 318 317 317 315 315 316 317 320 322 322 322 322 323 323 324 325 325 326 326 327 328 328 329 330 330 332 334 336 339 342 345 346 348 351 351 351 352 352 352 354 354 350 348 349 350 353 354 350 349 354 357 359 359 359 358 357 358 359 358 359 358 360 360 359
296 300 302 302 299 292 294 308 309 310 310 311 310 310 312 313 312 309 313 313 317 318 319 318 316 314 313 315 317 318 318 320 321 322 322 323 324 325 325 325 324 325 326 327 328 329 329 331 332 334 335 337 341 345 347 348 348 348 348 348 349 350 352 350 349 347 348 348 349 348 346 343 343 345 350 354 355 357 360 362 360 357 356 356 357 360 359
296 301 301 297 291 293 306 311 313 313 313 313 312 313 314 315 317 315 314 315 317 318 319 318 318 316 315 317 317 318 318 320 321 321 321 322 323 323 323 323 323 324 326 327 327 327 328 329 330 331 332 335 337 337 340 341 343 343 345 346 346 347 347 347 346 346 347 345 343 343 344 344 344 343 345 343 344 346 352 358 358 358 358 356 356 357 356
300 299 297 288 292 303 307 309 312 315 313 311 309 307 313 317 317 317 316 317 317 318 318 318 318 318 317 318 317 318 318 318 318 319 319 321 323 322 323 323 323 323 324 324 325 326 328 328 328 330 330 332 333 334 334 335 338 340 342 342 343 344 344 344 344 343 343 342 342 342 342 341 342 342 342 343 344 348 347 346 348 350 354 357 357 357 358
294 297 297 296 303 302 306 306 310 311 308 308 306 302 308 316 318 318 317 317 318 319 319 318 319 319 319 318 318 317 317 318 319 319 319 320 321 323 324 324 323 324 324 324 325 326 326 327 327 328 329 330 330 330 330 331 332 333 335 338 340 340 340 341 342 343 343 343 342 342 341 341 341 342 343 345 346 346 343 346 346 347 346 350 353 354 354
300 297 295 296 295 292 300 309 312 314 312 312 313 308 305 316 318 320 319 318 318 319 318 317 318 319 316 313 315 316 317 318 318 320 321 322 322 323 323 324 324 325 325 325 325 325 325 326 327 327 328 329 328 328 328 329 330 330 331 332 336 339 339 341 341 342 342 342 341 341 340 340 340 342 343 343 342 344 340 341 341 342 346 348 349 350 350
299 298 294 294 291 295 304 309 309 312 314 314 314 306 300 311 318 320 321 318 319 319 317 317 318 315 310 311 316 318 317 318 319 319 320 322 323 323 323 323 322 323 324 325 324 325 325 325 326 327 327 327 326 326 327 328 329 329 329 330 332 334 335 337 339 341 342 341 340 339 339 340 341 341 342 342 343 344 343 343 342 344 345 343 344 347 349
300 299 294 292 299 299 305 308 309 311 316 314 308 296 296 309 318 320 321 320 319 319 319 319 318 314 310 312 317 318 318 318 320 320 320 322 322 323 324 324 324 324 324 322 321 321 322 324 326 327 325 324 325 325 326 327 327 327 328 330 332 333 334 334 335 334 335 336 337 337 337 337 338 338 340 342 342 343 344 345 345 345 346 346 344 346 349
299 297 297 298 299 307 309 309 310 313 315 310 299 293 304 316 320 321 321 321 322 322 320 320 314 319 322 320 319 318 319 319 321 321 322 322 323 324 324 323 325 323 322 320 319 319 321 323 325 326 326 325 325 325 325 325 326 327 329 331 331 331 331 330 330 330 330 329 328 328 329 330 331 330 330 331 336 341 343 343 343 344 345 346 346 344 344
297 299 295 295 300 306 312 312 312 315 308 298 298 309 314 322 322 323 323 321 323 322 321 321 320 322 320 319 317 317 318 319 320 322 322 322 323 324 325 326 324 322 320 319 319 319 320 321 323 325 326 326 326 326 324 324 326 328 329 330 331 330 330 330 329 329 329 330 329 328 328 327 326 326 328 329 331 334 339 341 341 342 343 345 342 338 338
299 299 296 293 288 302 312 312 310 311 305 305 313 317 320 321 323 321 321 322 321 322 320 322 321 319 317 316 316 318 318 319 319 321 323 323 323 323 323 322 322 321 319 317 316 317 318 320 321 323 325 325 325 326 325 326 327 329 328 327 328 327 328 327 327 327 327 325 325 326 327 328 327 327 329 329 330 332 333 337 340 340 339 340 336 332 331
296 296 294 292 301 310 314 314 306 311 311 317 319 322 319 322 323 322 320 320 320 321 320 319 319 318 317 317 318 319 318 318 319 320 322 323 324 324 323 323 322 320 319 318 316 316 318 320 320 321 324 324 324 325 325 330 330 331 330 329 328 326 325 324 323 324 324 324 324 324 325 326 326 325 327 330 330 331 334 337 337 335 336 334 332 329 326
302 299 303 308 310 312 313 313 313 315 316 319 322 324 322 322 322 324 322 319 319 320 321 320 318 316 317 317 318 318 318 318 318 318 320 321 321 322 323 323 324 323 321 320 317 317 318 319 321 321 322 322 323 324 327 331 332 332 332 331 328 326 325 324 323 322 322 321 322 322 322 324 325 325 325 327 328 329 333 334 334 332 331 332 330 328 325
308 309 310 311 312 313 314 314 316 317 319 319 321 322 320 323 325 325 322 321 320 321 322 318 317 317 318 317 318 318 318 318 318 320 321 321 322 321 321 322 323 323 323 321 319 316 318 318 319 321 320 320 321 323 326 329 331 332 332 331 329 328 326 325 324 323 321 320 320 320 320 321 323 324 323 324 324 324 327 331 331 330 329 327 325 324 323
303 297 311 311 313 313 315 316 317 320 322 322 323 323 324 324 325 324 323 322 321 320 320 320 318 318 318 317 318 319 319 318 319 318 319 320 320 320 319 322 322 320 319 318 319 319 318 319 319 318 319 318 321 323 325 325 329 332 330 328 327 326 325 322 324 325 323 321 320 320 320 319 320 321 323 322 321 321 320 322 327 328 327 326 325 325 323
305 306 311 311 312 314 315 317 318 318 321 322 324 326 327 327 327 325 323 322 320 321 320 321 319 318 319 318 318 318 319 319 319 319 318 318 318 320 322 322 322 321 319 318 318 318 318 319 320 320 319 318 319 322 323 325 330 331 330 327 325 326 325 324 323 322 322 324 321 319 318 317 316 317 319 320 319 316 316 316 321 321 321 321 319 320 320
307 308 310 311 314 314 315 316 318 321 323 324 324 325 325 325 324 323 323 323 321 321 321 322 321 319 318 320 320 319 319 319 319 319 318 319 321 322 322 323 323 322 321 320 320 319 318 319 319 319 319 319 320 321 323 325 329 330 330 330 329 327 326 325 325 325 322 322 321 319 318 316 313 313 313 316 318 317 316 314 315 319 321 320 320 319 318
302 304 308 312 306 306 312 316 318 319 323 326 325 325 325 325 324 323 322 322 323 323 322 321 320 319 319 320 320 319 319 320 320 319 319 320 321 322 323 325 323 324 324 324 322 320 318 318 318 318 319 320 321 320 322 324 326 326 328 330 329 328 327 325 323 323 322 320 322 322 319 317 315 313 309 302 307 317 315 311 304 300 304 314 314 319 320
302 312 316 317 321 319 317 317 319 321 324 326 325 325 325 326 326 326 325 322 322 322 322 323 321 321 320 319 320 319 318 319 321 320 320 320 320 321 323 324 324 324 324 325 325 322 320 320 319 319 319 319 321 321 322 323 324 326 326 325 325 326 328 326 326 325 323 321 322 324 322 320 319 317 315 315 298 299 307 306 301 295 295 295 298 302 313
313 314 317 319 316 311 315 320 320 322 325 326 325 327 327 327 327 327 327 326 325 324 323 323 325 324 323 322 320 319 320 320 319 318 319 321 321 322 324 324 325 325 325 325 325 324 323 321 320 321 319 319 321 320 321 321 323 325 325 324 323 324 324 325 327 326 325 327 325 323 323 323 323 321 319 317 316 301 296 301 300 296 295 294 294 296 297
310 318 318 320 319 317 318 320 321 323 325 326 325 325 326 327 326 328 327 328 329 326 325 325 325 326 325 323 322 322 321 320 320 320 320 320 319 320 322 324 324 325 325 325 325 326 326 325 324 322 321 320 321 320 322 321 322 323 323 323 322 322 323 323 323 323 322 324 325 325 325 323 322 322 322 320 318 317 316 299 297 298 297 296 296 295 295
317 316 317 318 319 318 318 318 319 322 322 324 326 326 328 328 327 327 327 328 328 329 327 326 326 326 326 324 323 324 323 321 321 321 320 320 320 319 319 320 323 325 326 326 326 326 326 326 325 324 324 322 321 322 320 322 322 321 322 323 324 324 323 321 321 321 321 321 322 321 323 325 326 323 322 321 320 320 318 319 320 309 301 297 297 300 296
317 318 316 314 314 315 318 317 315 321 322 323 325 326 327 328 327 327 327 328 328 328 328 329 329 327 326 327 325 324 324 324 323 322 322 321 320 320 321 323 324 325 326 326 326 326 325 326 326 325 325 325 324 323 321 321 322 322 321 321 322 321 320 320 319 318 319 320 320 321 322 323 321 322 325 324 323 322 320 318 318 320 321 320 306 297 308
318 318 320 316 313 314 316 320 322 322 322 321 324 324 325 325 324 324 324 324 324 325 326 327 328 327 326 326 325 324 326 326 325 324 322 322 323 324 326 326 326 326 326 326 326 325 325 325 325 325 325 326 326 326 323 322 322 321 321 320 319 318 319 318 318 319 318 319 319 320 320 321 323 323 323 326 323 322 320 321 319 319 320 321 320 309 302
317 319 319 318 322 323 323 321 320 321 320 322 324 323 322 322 322 323 323 324 325 326 325 325 327 329 328 326 327 327 326 326 326 326 327 327 327 327 327 327 327 326 326 326 325 325 325 325 324 323 324 326 326 326 325 324 323 322 321 320 319 318 319 320 320 319 318 318 320 321 320 320 320 321 322 326 326 324 322 322 320 319 319 321 322 321 319
317 318 317 320 318 319 318 318 319 319 318 319 320 319 320 321 321 322 322 323 324 322 325 326 326 326 328 326 327 327 326 326 326 327 328 327 327 326 327 327 327 326 325 323 323 324 324 324 324 323 324 325 325 326 325 325 324 324 323 322 321 320 320 321 321 320 318 318 318 318 321 320 323 322 322 324 326 325 323 322 320 319 318 320 319 319 319
316 316 318 319 319 319 318 319 319 319 318 319 320 318 319 320 319 321 322 323 324 323 324 324 325 325 326 327 327 328 328 328 327 327 326 322 320 320 322 326 322 318 320 322 324 324 324 324 324 324 325 325 325 326 325 326 325 324 324 323 322 321 318 317 317 320 319 317 318 319 319 319 320 321 321 322 323 324 324 323 321 319 318 319 318 318 318
314 315 316 317 318 318 319 318 317 317 317 318 318 317 316 317 318 319 321 321 322 323 323 323 323 324 325 326 325 325 325 325 324 325 324 323 322 320 322 325 326 324 325 324 325 324 325 325 324 325 326 326 326 326 325 325 325 324 324 323 323 323 321 318 320 320 320 319 319 317 318 318 318 319 321 321 322 323 322 322 320 318 317 316 317 318 318
315 313 313 313 314 316 316 317 316 316 316 316 318 319 320 319 320 320 321 322 320 322 323 323 324 325 323 324 324 324 324 324 323 322 321 321 321 321 321 322 323 323 324 324 323 324 324 323 324 325 326 327 327 326 325 325 325 324 323 324 324 323 321 321 320 320 319 319 318 317 317 317 317 318 319 321 322 322 321 321 320 318 317 317 317 317 315
318 317 318 318 317 315 316 315 318 318 318 318 319 319 318 318 320 321 321 322 321 321 322 323 322 321 321 323 324 323 321 319 318 317 318 319 320 321 322 323 322 322 322 323 323 322 320 320 322 324 325 326 327 326 326 325 325 325 325 324 323 322 322 322 321 321 320 319 318 318 319 318 318 317 318 320 321 321 320 320 318 317 316 316 316 315 306
324 324 324 321 322 322 322 319 317 317 316 315 314 316 319 319 320 321 321 321 321 322 324 322 321 320 320 321 322 321 320 319 318 317 318 318 319 320 321 321 320 321 320 320 319 317 318 319 321 323 324 324 325 326 325 325 324 323 323 323 322 322 322 322 321 321 320 320 320 319 318 317 317 317 318 319 320 320 319 319 317 317 316 316 315 316 312
322 321 321 321 321 322 321 320 319 318 318 318 317 317 317 317 318 318 319 321 321 319 320 321 320 318 318 320 319 318 317 317 318 317 318 317 317 318 319 318 317 317 318 317 317 317 318 319 318 318 320 321 321 322 323 323 323 323 323 322 322 321 321 321 321 321 321 320 320 319 318 317 316 317 318 319 319 319 318 318 317 317 316 316 315 314 313
321 322 322 321 320 320 321 320 319 319 319 319 318 318 317 317 317 320 319 317 317 319 319 318 317 317 317 318 318 318 318 317 316 316 316 316 317 317 316 316 316 316 314 315 315 314 315 316 316 316 317 318 319 320 322 320 322 322 322 321 321 320 319 319 320 320 319 320 320 319 318 317 317 317 318 317 318 318 317 317 316 317 316 315 314 314 313
320 322 321 321 319 320 321 320 319 319 318 318 318 319 320 318 317 317 317 317 317 317 318 318 318 318 317 317 317 316 315 316 316 316 316 316 316 315 314 314 314 313 312 313 313 313 313 314 314 316 316 316 316 316 317 318 318 321 320 319 319 320 319 319 318 319 318 319 320 319 318 317 317 316 317 317 317 317 316 317 316 315 315 315 314 313 313
317 319 320 319 320 320 318 317 317 318 318 318 318 318 317 317 317 318 317 317 317 317 318 318 317 317 316 315 315 315 315 315 315 315 316 316 315 314 313 313 313 312 312 313 313 313 314 314 316 315 316 315 315 315 315 316 317 318 318 319 319 319 318 318 318 318 319 319 319 318 318 318 317 317 316 317 316 316 316 315 314 315 314 314 313 313 313
318 318 318 317 317 317 317 316 316 317 319 320 318 316 316 316 317 317 316 315 316 318 317 317 316 314 315 315 314 314 315 315 315 315 314 313 313 312 311 311 311 312 312 311 314 314 313 312 314 315 315 315 315 316 316 316 315 317 317 316 317 316 317 317 317 317 318 318 317 317 317 317 317 317 316 316 316 315 315 314 313 313 313 313 313 312 312
318 318 318 318 318 317 317 316 316 317 317 318 319 317 317 317 317 317 315 315 315 317 318 317 316 315 314 314 314 314 313 311 311 311 312 313 312 311 311 311 311 311 312 312 313 313 312 312 313 314 315 316 316 315 317 315 316 316 316 316 316 316 316 316 316 316 317 316 317 317 317 317 316 315 315 315 315 315 314 314 312 312 312 312 313 311 311
318 318 317 317 317 317 317 317 315 314 315 316 316 316 316 317 318 316 316 315 315 315 316 316 315 315 315 315 313 311 309 308 309 310 311 311 311 310 310 309 310 310 311 311 312 312 313 313 313 313 315 316 316 314 313 315 315 315 315 315 315 316 315 315 315 315 317 316 316 316 316 316 316 315 314 314 314 314 313 312 311 311 311 310 310 310 309
317 317 317 317 316 316 315 315 315 314 313 313 314 315 316 317 316 315 314 315 314 314 315 315 314 314 314 313 312 311 308 308 308 307 307 307 307 309 309 310 311 311 310 311 311 313 313 315 314 314 313 313 313 312 311 314 314 314 314 314 315 315 314 314 314 314 315 314 314 314 315 314 314 313 313 312 313 312 311 311 309 309 309 308 307 306 307
317 317 317 316 315 315 315 315 314 313 312 311 313 314 315 316 316 315 314 314 314 314 314 314 315 314 313 313 312 311 309 308 308 308 308 307 307 308 309 310 310 310 309 311 311 311 312 314 314 312 311 311 310 309 311 313 313 313 313 313 312 312 312 312 312 312 312 312 312 312 313 312 312 312 312 312 311 311 309 309 307 307 307 306 306 305 305
317 317 316 315 314 313 313 313 313 314 313 312 313 314 315 315 315 315 315 314 314 314 314 314 314 313 312 312 312 312 311 310 310 310 307 306 305 306 309 308 309 309 309 308 311 311 311 312 310 309 309 309 309 307 310 310 310 311 311 311 311 311 311 311 311 312 311 312 312 312 311 311 311 311 311 310 308 308 306 306 305 305 305 304 304 303 303
316 316 315 314 313 313 314 315 314 313 311 312 312 313 314 315 315 315 315 314 313 314 314 314 313 313 312 310 308 307 306 306 307 309 310 309 307 307 309 308 308 308 307 307 310 309 310 308 309 309 308 308 307 309 310 310 310 310 309 309 310 310 310 309 310 310 309 309 310 309 310 310 310 310 310 308 306 305 304 304 303 302 302 302 303 303 302
314 313 314 314 314 313 313 312 312 312 311 311 310 309 312 314 314 314 314 315 314 314 314 314 314 313 313 312 310 309 308 307 308 308 309 309 309 308 308 308 307 307 307 307 307 308 308 308 308 308 308 307 306 310 310 310 310 309 309 309 309 309 308 309 309 308 309 309 309 308 307 308 309 309 308 306 306 305 304 304 303 302 301 302 302 302 301
313 312 312 312 311 311 311 311 311 310 310 310 310 310 311 313 313 313 314 314 314 313 313 313 312 312 313 312 312 312 311 308 304 306 309 308 308 308 308 307 308 307 305 305 303 305 305 305 306 306 306 306 308 309 309 308 308 308 307 309 309 309 309 309 309 309 308 308 308 308 307 307 307 307 307 306 306 306 306 306 305 304 303 304 303 303 302
313 312 311 311 310 311 311 311 310 310 311 312 311 310 312 312 312 312 312 313 312 312 311 311 312 311 312 312 311 310 310 311 309 305 308 308 307 307 307 307 306 306 306 306 304 304 304 303 302 304 305 303 306 307 307 307 307 307 306 307 307 307 307 307 308 308 307 307 307 306 306 305 305 305 304 303 303 304 304 304 304 304 304 304 304 303 303
311 310 310 309 310 310 310 310 310 310 311 311 311 311 311 311 309 309 311 310 311 310 310 310 310 311 311 310 311 311 311 311 310 310 309 308 308 308 307 307 307 306 306 305 305 304 303 302 301 302 304 306 305 305 306 307 307 306 306 306 306 306 306 305 306 305 306 306 305 306 305 305 305 304 304 304 303 303 302 302 302 302 302 303 304 304 303
310 309 310 311 311 312 313 313 313 312 311 311 311 310 310 309 309 310 311 311 310 309 308 308 309 309 309 310 310 310 311 311 310 309 308 308 308 307 306 307 307 306 306 305 305 305 304 303 303 303 305 304 304 305 306 307 307 306 306 306 306 306 306 305 305 305 305 305 305 305 305 305 305 305 305 304 304 303 303 303 303 302 302 303 303 303 303
311 311 311 311 311 312 313 312 312 312 312 310 310 310 310 310 310 310 310 311 309 308 308 307 306 308 310 309 309 309 309 308 308 308 307 307 307 306 306 306 306 305 305 305 305 306 304 303 302 302 302 304 305 306 306 306 306 306 307 307 306 306 306 306 306 305 305 305 305 304 304 304 304 304 304 303 303 302 302 302 303 302 302 301 302 302 302
Wind_Speed
3 3 3 3 1 3 3 4 3 3 3 7 8 4 6 4 1 2 5 3 2 4 4 7 8 11 8 10 10 9 8 8 8 8 10 10 10 9 9 9 10 10 8 7 6 5 4 4 4 5 6 6 6 5 4 4 6 8 8 9 10 11 11 11 11 11 8 9 10 11 11 9 9 10 10 10 10 9 9 10 9 10 10 10 9 9 9
3 5 3 1 1 2 4 5 5 5 3 10 11 10 9 8 8 8 6 7 2 1 2 6 7 7 9 9 9 9 10 9 8 9 9 10 10 11 11 10 10 10 9 10 8 7 6 5 5 6 5 5 6 6 5 4 5 5 7 9 10 10 11 11 10 9 10 11 10 10 10 11 10 10 10 10 10 11 11 10 10 9 9 9 9 9 9
3 5 2 1 1 1 3 4 6 6 4 6 8 11 9 9 8 8 8 11 5 0 3 4 7 8 9 10 11 9 9 9 9 9 9 10 11 11 11 10 10 10 10 10 10 10 10 9 9 6 5 4 4 6 6 6 7 6 7 9 10 9 10 9 7 4 6 8 9 10 9 8 9 10 11 10 10 10 10 10 10 9 9 10 10 9 10
0 4 4 2 1 1 1 2 4 3 1 2 1 4 5 3 5 7 9 6 6 5 4 5 7 9 9 8 9 9 7 9 9 9 10 10 11 11 12 11 11 11 11 12 12 11 10 10 9 8 7 7 6 6 5 6 5 5 7 9 10 7 6 5 5 4 7 8 9 9 8 6 7 9 10 9 9 9 9 10 8 8 10 11 10 10 9
0 3 1 3 0 1 4 5 2 2 4 3 3 3 1 2 10 7 6 7 5 4 2 3 7 9 8 8 8 8 9 9 9 10 10 10 11 12 12 12 13 12 10 10 11 11 10 9 9 10 9 8 7 6 6 5 4 5 7 9 10 11 10 7 6 7 9 11 9 8 7 6 5 3 5 7 8 8 9 9 7 8 9 9 9 9 9
1 2 2 1 2 4 2 3 2 2 1 3 2 2 3 5 6 3 1 3 4 5 5 4 6 9 7 4 5 4 5 7 8 9 10 11 11 11 11 12 11 11 9 9 9 9 9 9 10 9 10 10 9 7 5 5 5 7 8 7 7 8 6 4 7 7 5 6 6 4 4 3 3 5 3 2 2 3 5 5 6 8 9 9 8 8 8
2 2 1 3 4 3 3 3 1 3 1 0 2 1 3 6 6 9 6 5 3 3 1 4 8 6 5 3 5 7 8 7 6 8 9 11 11 11 11 12 12 10 10 10 11 12 11 10 11 11 11 9 8 10 8 7 7 5 4 5 7 8 9 8 8 8 7 6 6 6 6 6 6 7 7 2 6 6 6 4 4 6 7 7 7 7 8
3 2 3 3 1 5 6 4 1 2 3 3 3 3 5 6 6 5 8 6 4 3 3 5 6 4 1 3 6 6 7 7 6 7 7 8 10 11 10 11 10 10 10 10 11 11 9 10 10 11 10 9 8 7 8 7 7 7 8 5 6 8 8 8 9 9 9 8 6 6 6 6 5 4 4 4 4 3 2 2 5 9 8 5 3 3 1
2 1 5 4 5 7 5 4 6 6 2 2 1 1 4 9 7 7 7 8 7 6 4 4 3 1 1 2 5 6 5 6 5 6 6 7 9 9 10 11 10 9 9 10 9 9 10 10 11 10 8 8 9 10 11 10 11 11 9 8 9 5 2 3 7 8 9 8 7 7 8 6 4 3 3 4 1 2 2 2 1 4 7 7 4 4 3
1 3 3 3 3 5 1 4 4 2 2 3 5 2 2 5 7 6 7 8 9 9 7 6 3 1 1 3 2 2 3 4 5 5 6 7 8 9 9 9 10 9 9 9 10 10 11 12 11 9 9 8 9 11 13 12 12 12 13 12 9 9 8 8 6 5 5 6 5 6 7 6 4 3 3 1 1 1 4 5 3 4 4 6 6 6 7
3 3 3 3 4 1 3 6 5 5 3 4 4 4 1 1 6 8 9 9 9 9 10 8 4 3 3 3 3 2 1 3 4 5 6 7 8 9 9 9 10 9 8 8 9 10 11 11 10 10 10 10 10 10 12 13 13 13 14 12 10 9 10 9 8 6 4 4 5 5 6 5 5 4 2 2 3 3 4 5 5 4 5 5 5 5 4
3 3 4 4 4 2 3 1 3 5 3 4 3 4 1 1 7 7 8 9 9 10 9 8 7 6 3 3 4 4 3 3 4 5 6 7 7 8 8 9 8 7 8 10 12 12 12 11 9 10 10 10 11 11 11 12 12 12 12 10 7 7 7 8 8 8 8 8 7 6 6 6 4 4 3 1 0 2 4 5 4 4 4 5 6 5 6
3 4 2 2 3 2 2 2 4 4 4 2 3 2 3 5 5 5 7 8 9 10 11 9 7 5 0 3 6 5 4 4 4 5 5 6 7 7 8 7 6 8 9 9 10 10 8 9 9 9 9 10 10 10 9 10 12 11 9 7 7 8 8 9 10 11 9 9 7 7 7 6 6 5 5 4 3 2 2 3 2 2 2 1 1 3 4
4 3 4 3 3 1 3 2 3 4 4 4 3 2 1 5 5 3 3 6 7 9 10 9 5 4 3 6 7 6 5 5 4 3 4 6 7 7 7 7 7 7 8 9 10 10 9 9 9 9 10 11 10 9 9 10 9 6 6 6 6 7 7 7 8 8 7 7 8 9 8 7 8 8 6 4 4 3 3 2 3 2 2 3 3 4 4
2 2 2 0 3 2 4 9 4 1 4 1 3 4 2 2 3 6 4 4 6 6 7 6 7 7 7 7 7 6 6 5 5 5 5 6 6 7 7 8 8 7 7 8 9 8 8 8 8 8 11 11 10 9 10 8 6 6 5 5 6 6 7 8 7 6 6 9 8 7 7 6 7 6 4 3 3 4 4 4 2 0 2 3 5 5 5
2 4 4 2 2 4 8 5 3 5 1 2 4 4 5 3 3 4 5 3 5 5 7 9 8 8 8 6 6 6 6 6 6 5 5 5 5 6 6 6 6 7 7 7 8 8 7 8 7 8 8 9 10 10 9 6 6 6 6 6 6 7 7 7 7 6 7 8 7 7 7 7 8 8 8 7 7 7 5 4 3 4 3 4 4 4 4
4 1 1 3 1 0 2 1 3 1 1 1 4 1 3 5 3 2 3 5 5 6 9 10 9 9 7 7 6 5 6 6 5 5 5 5 5 5 5 6 6 6 6 6 7 8 8 8 7 7 8 9 10 10 7 6 5 5 6 6 6 7 6 6 5 5 6 7 7 6 6 7 8 8 9 8 6 7 6 5 6 6 5 5 5 5 6
1 2 2 2 0 2 1 2 1 2 3 1 3 4 4 1 3 3 4 5 7 8 9 10 7 6 7 6 5 5 6 6 5 4 4 3 3 4 5 5 5 4 4 6 7 8 9 8 8 7 7 8 9 7 7 6 6 5 5 6 6 6 6 6 6 6 7 7 7 7 7 6 7 7 7 7 7 6 7 7 6 6 6 5 6 5 5
3 2 3 1 2 2 3 4 3 1 1 2 2 2 3 4 4 4 5 6 7 8 8 8 8 7 6 6 4 4 4 5 5 5 4 3 3 4 5 4 3 4 4 5 7 7 8 7 7 8 8 8 7 6 6 6 6 5 6 6 6 6 6 6 6 7 8 6 5 7 7 6 6 6 7 8 8 8 8 8 7 6 6 7 6 5 5
2 2 4 1 1 1 0 2 5 5 4 3 1 1 4 4 5 5 6 7 7 7 7 8 9 7 6 6 5 4 3 4 4 4 4 3 3 3 2 2 1 2 4 5 6 6 6 6 6 6 7 7 7 7 7 7 5 5 6 6 6 6 7 6 6 6 6 8 7 6 7 7 7 7 7 6 8 8 8 7 7 8 6 6 6 5 4
2 1 1 1 1 1 3 3 1 2 5 6 5 5 6 6 8 7 6 5 7 6 6 7 8 7 5 5 6 5 4 3 3 4 3 2 3 2 2 2 1 3 3 4 4 5 5 4 5 5 7 7 6 7 7 7 6 5 5 6 5 6 5 5 5 5 5 5 5 5 5 7 7 7 6 5 5 6 7 5 4 4 3 3 3 2 2
4 5 7 9 6 5 7 8 8 7 4 7 7 6 7 8 8 8 8 5 5 4 7 8 9 9 6 5 5 6 5 5 5 4 3 2 2 2 1 0 0 1 2 3 5 5 4 3 4 5 5 6 6 7 6 6 6 6 5 5 5 6 5 5 5 4 4 5 4 4 4 5 5 6 8 8 7 5 5 8 10 9 6 3 2 2 1
3 4 8 11 2 2 6 11 10 9 7 8 10 9 9 8 8 8 9 9 7 6 6 6 8 8 8 7 6 6 5 4 4 3 4 3 2 2 2 1 1 1 2 2 4 5 4 3 4 4 4 5 5 6 6 6 6 6 5 5 4 5 5 5 5 4 3 4 4 3 3 4 4 5 5 6 9 10 9 8 8 8 9 8 8 7 4
2 1 8 10 3 3 4 9 11 10 8 9 10 9 8 8 7 7 8 9 9 8 8 6 5 8 8 8 8 7 5 4 4 4 4 3 2 1 1 1 2 2 2 3 4 4 3 3 4 4 4 4 4 5 5 5 5 5 5 5 4 4 4 4 4 4 3 3 2 2 2 2 2 2 3 5 5 5 6 8 7 8 9 9 9 9 8
3 3 6 8 4 4 4 8 9 10 8 7 10 10 9 8 6 5 7 6 6 8 7 7 5 5 7 7 7 7 7 6 6 5 4 3 2 2 2 2 3 3 4 4 3 3 3 2 2 2 3 4 4 4 4 4 5 5 5 5 4 4 4 4 4 4 3 3 3 2 1 1 1 1 2 1 3 4 3 3 7 12 11 10 11 11 10
3 5 7 7 4 5 6 8 6 8 8 6 7 7 7 8 8 6 7 7 5 6 7 7 7 5 5 7 6 5 6 6 6 4 4 4 3 2 2 2 2 2 3 3 4 4 4 5 5 4 4 3 2 3 4 3 3 4 4 4 4 4 4 4 4 3 3 3 2 2 1 1 0 0 0 1 1 1 2 3 3 5 10 12 9 7 10
3 8 12 8 5 3 6 10 8 11 10 7 9 10 8 8 8 5 5 4 4 3 4 5 5 5 3 3 5 4 4 5 6 5 4 4 4 2 1 1 0 1 1 2 2 3 4 5 5 5 5 6 3 1 1 2 3 3 3 3 2 3 4 4 3 3 2 2 2 2 1 0 0 1 1 2 2 1 1 1 2 3 3 5 8 9 7
6 8 7 6 8 9 11 4 5 12 10 8 9 10 8 7 7 8 8 6 5 4 3 3 5 6 5 4 5 5 4 5 5 5 5 5 4 4 3 3 3 3 2 1 2 3 3 4 4 5 5 6 5 2 1 0 1 1 2 2 2 2 2 3 3 3 3 2 3 3 3 2 2 1 2 2 3 3 2 2 2 2 2 3 3 3 5
6 7 1 3 2 3 6 7 7 10 9 6 7 8 10 10 9 10 9 8 7 7 5 3 2 3 5 5 4 5 5 4 5 5 5 5 5 5 5 5 4 4 3 2 2 1 1 2 3 4 4 5 4 4 3 1 1 1 1 1 2 2 2 2 3 3 3 3 2 3 4 4 3 2 2 2 2 3 3 3 3 3 2 3 2 2 1
5 4 2 2 6 10 11 8 9 11 10 9 10 10 11 11 9 8 8 8 8 8 7 5 5 4 4 5 4 5 6 6 6 5 4 3 3 3 3 4 4 3 3 3 3 2 1 1 1 1 3 4 4 3 3 2 2 2 2 2 2 2 1 2 2 2 2 3 3 3 3 3 2 2 2 1 1 2 3 3 3 3 3 3 1 1 1
5 3 3 4 7 9 11 10 9 10 10 10 11 10 8 9 10 8 8 7 5 7 6 6 6 6 5 5 4 3 3 5 5 5 4 3 3 3 3 2 3 3 2 2 2 1 1 1 1 1 2 3 4 4 4 3 3 2 2 2 2 3 3 3 3 3 2 2 2 3 3 3 3 3 2 2 2 2 3 3 3 3 2 2 2 1 2
9 6 5 4 6 8 7 7 8 9 9 9 10 11 10 10 10 10 8 7 7 8 7 7 7 7 5 4 4 4 4 5 5 5 4 3 3 3 2 2 0 1 2 2 1 1 1 1 2 2 2 2 2 3 2 3 3 3 3 3 3 3 3 6 3 3 3 2 2 3 3 3 2 3 3 2 2 2 2 2 2 2 2 2 2 2 1
11 7 5 5 4 5 6 7 9 10 10 11 10 9 8 7 7 8 8 8 7 5 6 6 5 5 5 5 6 6 6 5 5 4 4 4 3 2 2 2 2 2 2 3 2 2 2 3 3 3 3 2 2 2 2 2 3 3 4 3 3 3 3 3 3 3 3 3 2 2 2 3 2 3 2 2 2 2 1 2 2 2 2 2 2 2 3
12 9 11 12 12 9 10 9 7 8 7 6 5 6 6 5 6 6 6 6 7 7 7 6 5 5 5 6 6 7 7 7 5 5 4 4 4 3 3 3 3 3 3 3 4 4 3 3 3 3 4 4 3 3 2 3 3 3 3 4 4 4 3 3 4 4 4 3 2 2 2 3 3 3 2 2 1 2 2 2 2 2 2 3 3 3 4
9 8 9 10 8 9 9 10 10 9 9 8 5 4 4 4 5 5 6 7 8 7 5 6 6 5 5 5 6 7 7 6 6 6 5 4 4 3 3 3 3 3 4 4 4 3 3 3 3 4 5 4 4 4 3 4 3 4 3 3 4 4 4 4 4 5 5 5 3 3 3 3 3 3 2 2 2 3 3 3 3 3 3 4 4 4 4
5 5 5 6 5 5 7 9 10 12 10 9 8 8 7 6 6 6 7 6 3 4 5 6 6 6 5 6 6 6 5 5 6 5 5 5 4 3 3 4 3 2 2 3 3 4 3 2 5 8 5 4 4 4 4 4 5 4 4 4 4 4 4 5 5 5 5 5 5 4 3 3 3 3 3 3 3 4 4 5 5 4 4 4 4 4 4
6 7 7 7 6 6 7 7 8 9 8 8 7 6 6 6 7 4 4 4 4 4 5 6 6 6 5 4 4 4 4 5 5 5 5 4 3 4 4 3 2 2 1 1 3 5 4 4 8 9 6 4 5 5 5 7 5 5 4 4 4 5 5 5 5 5 5 6 6 5 4 4 5 5 5 4 4 4 4 5 5 5 4 4 4 4 4
7 6 8 8 8 7 6 6 7 8 8 7 4 4 6 7 6 6 5 5 5 5 5 6 6 6 6 5 5 6 6 5 6 5 5 4 3 3 3 2 1 1 2 2 4 4 4 6 8 6 5 5 5 6 6 8 7 5 4 4 4 5 5 5 5 5 6 6 6 5 6 6 6 6 5 5 4 4 5 5 5 5 5 5 4 4 4
6 4 5 5 5 7 7 6 6 7 10 10 6 5 5 6 7 7 7 6 5 6 6 6 7 7 7 7 6 6 6 5 5 4 4 3 3 2 2 2 2 2 2 3 3 4 4 5 5 5 4 4 5 5 6 6 7 4 4 4 5 5 5 5 5 5 5 5 5 5 6 6 7 7 6 5 5 5 5 5 5 5 5 6 6 6 5
8 8 9 9 7 7 7 7 7 7 6 7 9 8 7 8 7 7 7 7 5 5 7 7 7 6 6 7 7 6 5 4 3 3 3 3 3 4 4 3 2 1 2 3 3 3 5 6 4 3 3 3 4 5 5 5 5 4 4 4 5 5 5 5 5 5 5 5 6 6 7 7 7 7 7 6 5 5 5 5 5 5 5 6 6 5 6
9 8 8 9 9 8 8 8 7 6 6 5 6 8 8 9 8 9 8 8 6 5 7 7 7 6 7 7 6 5 4 3 3 4 3 2 2 1 0 1 1 2 2 3 4 4 4 4 2 2 3 3 3 5 5 4 4 4 4 4 5 5 5 5 5 6 5 5 5 6 6 5 5 5 5 5 5 4 4 4 4 5 4 5 5 5 5
9 9 9 9 8 8 7 7 8 8 6 6 7 8 8 9 9 9 8 7 7 6 6 6 6 7 5 5 5 5 5 5 4 4 2 1 1 1 1 1 2 2 4 4 3 3 3 3 2 2 3 4 4 6 6 4 3 3 2 2 2 3 3 4 4 4 4 4 4 4 4 3 4 4 4 5 5 5 5 5 5 5 5 5 5 5 5
11 11 11 9 8 9 9 9 8 9 9 7 7 7 8 8 8 9 8 8 8 7 7 6 7 7 6 5 5 4 4 4 4 4 3 3 2 1 1 1 1 2 4 3 3 3 3 2 3 4 5 5 5 6 5 4 4 3 3 3 3 3 3 3 3 3 3 3 3 3 3 3 3 3 4 5 5 5 5 5 5 5 5 5 4 4 4
12 10 9 10 9 9 9 8 8 9 10 8 6 7 8 7 8 9 9 8 8 7 7 6 5 5 5 4 5 4 4 4 4 3 3 2 2 1 1 1 2 3 4 3 3 3 2 3 3 5 6 7 6 6 4 3 3 3 3 3 3 3 3 3 3 3 3 2 3 3 3 3 3 3 3 4 4 4 4 4 4 5 5 5 4 4 4
11 10 11 10 12 10 9 9 11 10 9 9 8 7 8 8 8 8 8 8 8 7 6 6 6 5 5 4 4 3 4 3 3 3 3 3 2 2 2 1 1 1 2 2 2 2 3 4 5 6 6 7 7 6 3 3 3 3 3 3 3 3 3 3 3 3 2 2 2 2 2 1 1 1 0 2 3 3 3 3 3 3 3 4 4 4 4
11 9 11 12 11 10 9 9 9 11 11 10 9 7 6 7 7 7 7 8 8 7 6 6 7 6 6 5 5 6 5 4 3 1 1 1 2 3 2 1 1 2 2 1 2 2 2 4 5 5 6 6 7 4 3 3 3 3 3 3 3 2 2 2 2 2 2 2 2 2 2 2 2 2 2 2 3 3 4 5 4 3 3 3 3 3 3
10 10 10 10 9 10 11 10 10 12 12 11 10 8 6 6 7 6 6 7 7 6 5 5 5 5 6 6 6 5 5 4 3 2 2 2 3 3 3 3 3 3 2 0 2 2 3 2 3 4 5 5 5 3 3 3 3 3 3 3 3 2 2 2 2 2 2 2 2 2 2 2 2 2 3 4 4 4 4 4 4 4 4 4 4 4 4
12 12 11 11 12 12 11 12 12 11 11 10 10 8 7 7 7 6 6 6 6 6 6 5 5 5 5 4 4 3 3 3 4 4 3 3 3 3 3 2 2 4 3 2 3 2 4 4 4 4 4 4 2 2 2 2 2 2 1 1 1 1 2 2 2 3 3 3 2 2 2 2 2 2 2 2 2 3 3 4 4 4 4 4 5 5 5
9 11 11 11 12 13 11 10 10 9 8 8 9 7 8 8 7 6 6 6 7 6 6 5 5 5 4 4 4 3 3 1 1 3 4 3 3 2 3 3 4 3 1 0 0 1 3 4 4 4 3 2 2 2 2 2 2 2 1 1 1 2 2 1 1 2 2 2 2 2 2 2 2 2 2 2 2 2 2 2 2 3 4 4 4 5 5
10 11 11 10 10 11 11 10 9 8 8 8 8 7 8 8 8 7 6 7 7 6 6 5 5 5 4 4 3 3 2 2 2 2 4 4 3 2 2 2 2 3 1 1 1 1 2 1 1 2 2 2 2 2 2 1 1 0 1 1 1 1 1 2 2 1 1 1 1 1 1 1 1 2 1 2 2 2 2 2 2 3 4 3 4 4 5
9 9 9 9 9 9 9 9 8 9 8 8 8 7 7 8 8 7 7 8 7 7 6 5 5 5 4 4 3 3 3 3 3 4 4 4 3 3 2 2 3 2 2 1 1 2 2 2 1 1 1 2 3 2 1 1 1 1 2 2 1 1 1 2 2 1 2 2 2 1 1 0 0 0 0 1 1 2 2 3 3 3 3 2 2 2 3
7 8 9 9 9 8 7 6 7 6 7 7 7 8 8 8 8 7 7 8 8 7 7 7 6 5 4 4 4 4 4 3 4 4 3 3 3 3 3 3 2 2 2 1 1 1 1 1 1 1 2 2 2 2 1 0 1 0 1 1 1 1 1 1 1 1 1 1 1 1 1 1 0 1 1 1 1 1 1 1 1 2 3 3 3 3 3
Wind_Direction
320 322 303 327 344 25 33 12 338 75 92 83 91 88 124 171 311 101 42 353 177 88 69 1 351 343 15 35 28 25 25 33 37 38 45 48 51 56 56 53 49 45 41 40 21 1 334 328 312 300 293 289 290 283 255 221 197 200 188 191 191 193 200 200 201 203 205 218 215 209 212 215 218 223 222 218 214 211 208 215 220 223 222 224 224 223 224
5 19 13 37 157 134 80 45 26 355 58 100 104 104 115 110 82 52 27 354 322 274 30 347 359 9 21 21 13 29 25 27 26 38 44 46 44 46 53 52 49 46 42 37 29 13 10 355 338 314 284 274 272 267 263 239 218 219 201 204 203 203 204 209 209 176 189 215 219 215 207 205 210 214 220 219 215 212 211 214 220 220 225 228 231 229 229
36 23 36 58 66 306 103 83 65 52 56 85 97 112 109 111 102 88 13 324 290 126 99 28 29 35 27 20 360 12 26 17 20 30 36 42 47 49 48 45 41 39 36 31 26 16 10 7 358 355 328 285 257 266 274 270 255 239 228 222 218 212 213 217 219 194 203 229 222 220 215 204 199 205 216 219 219 214 212 213 216 211 219 230 233 235 234
155 39 11 56 83 142 101 65 72 88 77 63 107 124 154 154 141 122 113 326 294 313 18 62 55 53 39 24 359 356 0 15 23 29 34 37 40 41 41 39 39 38 34 30 26 20 12 8 5 358 346 335 318 288 263 261 246 229 235 236 232 235 237 222 190 172 211 238 246 234 225 237 213 196 197 207 213 209 211 212 204 215 222 225 229 233 234
80 36 34 39 207 211 251 225 94 68 93 94 98 57 92 102 137 136 141 181 245 261 238 77 50 57 43 33 10 341 349 9 25 30 33 36 37 39 38 38 39 37 34 32 29 23 14 9 6 3 355 345 333 314 293 263 239 226 223 220 226 232 234 224 190 194 188 195 201 208 203 226 269 225 185 191 201 208 212 208 200 209 216 223 227 230 231
102 45 7 300 228 240 235 41 318 263 94 169 180 142 147 146 177 125 133 167 174 286 322 49 62 62 60 10 353 343 347 350 24 32 33 37 41 42 41 39 37 33 31 28 24 17 6 0 1 356 8 2 359 358 344 322 283 249 229 225 225 227 217 197 197 207 196 201 186 107 99 112 267 278 257 146 47 295 239 198 200 207 213 219 224 226 231
116 102 208 212 239 249 37 327 313 233 214 39 327 113 180 173 188 144 138 142 164 138 360 44 85 91 94 32 25 15 1 356 13 28 35 37 40 41 41 39 36 33 28 27 25 21 13 5 11 11 14 2 4 24 14 17 17 7 307 263 239 226 216 199 184 192 183 162 141 149 160 169 171 222 239 201 171 193 243 269 251 214 218 223 223 229 237
106 180 144 244 243 347 301 283 217 146 253 261 244 224 221 208 199 172 142 152 142 119 74 62 87 105 144 153 68 34 0 5 5 27 31 35 41 44 42 43 33 29 28 28 30 29 17 18 15 19 14 3 19 22 20 19 4 7 7 347 273 230 205 194 185 174 166 146 134 130 134 148 159 197 226 231 232 250 254 256 302 311 301 283 264 262 281
214 159 202 275 334 288 221 220 198 195 182 139 263 232 180 203 191 192 156 150 146 124 110 99 101 75 303 73 65 37 3 360 25 37 34 36 46 52 51 48 43 33 31 32 27 29 30 28 25 21 4 3 21 33 32 25 31 25 19 11 25 40 68 154 144 145 142 138 140 143 149 154 174 175 214 227 199 79 71 116 131 295 294 284 302 297 282
259 163 198 248 264 272 231 132 83 119 145 153 151 207 123 175 177 174 165 159 155 143 142 145 154 21 207 152 109 52 6 356 27 45 42 45 55 57 57 57 52 43 32 33 35 32 35 35 31 25 22 27 29 38 39 35 36 35 32 23 355 9 23 12 31 64 87 112 121 129 134 145 141 152 179 95 80 183 223 254 233 210 261 313 330 324 308
167 173 214 204 248 261 25 159 141 150 182 165 177 263 161 100 193 168 166 162 160 157 157 154 156 171 180 192 180 93 37 20 28 49 50 48 51 54 56 55 55 48 40 36 36 33 32 32 25 32 30 30 35 34 35 38 40 39 38 30 20 20 24 17 12 34 49 65 97 107 115 122 127 129 138 176 185 175 218 228 225 228 259 253 262 269 266
188 169 205 237 211 266 47 12 132 176 182 196 247 283 317 242 174 167 166 167 164 159 161 159 177 185 173 176 160 117 109 69 52 51 56 54 50 53 56 59 60 57 50 49 40 35 30 22 24 34 38 40 37 36 31 39 42 42 40 35 13 10 21 27 23 21 19 30 32 41 62 71 73 75 75 79 201 230 236 226 216 195 203 223 231 240 234
148 207 217 308 254 217 241 177 152 163 185 226 243 264 81 146 162 170 163 163 168 163 166 173 182 201 104 78 106 125 128 99 67 60 65 67 59 54 53 51 47 61 57 54 49 40 27 16 25 35 44 46 41 36 31 33 40 43 42 33 34 33 37 41 44 43 40 42 46 47 37 38 50 48 33 6 346 324 241 227 237 214 219 337 328 55 35
187 178 238 264 311 23 110 79 166 164 180 208 242 57 90 147 146 139 142 141 156 170 176 180 180 143 120 119 119 121 109 98 88 66 63 70 72 68 60 49 48 61 61 55 51 44 31 27 27 39 48 49 45 41 40 31 21 28 37 43 42 41 44 48 46 39 31 36 38 42 39 38 42 36 16 6 10 348 313 272 242 226 171 195 137 117 87
79 168 217 162 256 136 174 126 116 202 252 356 72 131 133 183 148 138 131 141 152 170 171 169 148 144 140 139 132 124 114 106 92 76 63 57 56 48 45 48 41 49 59 56 53 47 36 29 22 26 50 54 50 46 41 23 17 38 48 47 55 54 51 48 44 43 36 41 38 31 34 36 47 49 32 20 18 14 357 346 346 97 159 118 114 102 81
230 178 201 215 351 112 172 186 196 169 238 62 154 154 138 161 163 142 137 147 154 160 157 150 146 146 141 132 131 119 106 105 103 90 79 74 71 69 62 49 34 41 53 52 57 51 42 32 26 18 29 49 50 48 38 14 22 38 45 46 45 48 49 44 37 31 34 39 40 37 33 32 38 36 27 22 22 13 1 19 65 87 80 110 105 95 86
221 274 85 75 32 34 140 33 51 49 89 171 173 201 128 156 148 146 134 137 149 151 149 148 148 145 149 143 148 136 111 106 97 90 79 69 69 66 60 49 40 37 40 43 52 55 47 43 36 30 24 37 41 36 16 12 29 35 46 49 50 49 43 40 40 41 40 38 33 30 26 36 46 41 39 35 33 15 25 57 66 65 60 62 68 69 68
266 279 285 324 181 168 158 163 280 126 139 150 195 180 149 152 118 158 130 137 135 137 143 139 146 145 140 136 132 119 116 112 107 111 109 92 76 72 67 58 41 34 43 41 41 47 46 40 43 39 36 38 37 18 7 7 20 34 43 48 49 43 42 38 33 39 49 45 41 38 36 39 49 51 48 42 40 26 27 43 54 61 64 65 63 62 68
175 178 151 189 114 116 131 124 110 38 233 158 182 159 132 127 124 117 120 131 136 137 142 139 138 141 150 140 130 124 127 130 135 131 120 106 73 62 66 44 32 43 46 50 42 39 37 29 34 39 37 37 31 13 16 8 23 31 43 51 51 45 41 38 35 35 43 39 37 34 27 31 39 46 49 49 45 40 36 39 42 54 62 70 71 56 50
200 76 120 118 348 319 51 154 147 148 149 136 118 78 96 104 101 119 127 129 128 142 138 142 142 146 158 153 145 148 140 144 143 142 140 129 119 95 84 78 53 58 51 52 49 45 38 19 21 27 34 34 25 16 17 15 13 37 50 47 52 51 48 45 39 34 42 39 40 42 34 31 30 29 37 42 50 45 35 27 42 52 49 47 45 43 39
112 41 251 223 80 180 177 176 218 137 148 146 129 121 120 122 121 121 130 146 150 157 143 147 142 143 163 161 157 153 150 158 168 163 146 128 108 107 103 91 61 64 57 59 50 52 47 25 16 21 26 29 22 18 10 11 4 38 49 53 57 55 51 52 48 43 41 42 43 48 54 51 50 39 21 21 51 62 45 35 27 33 43 61 68 50 44
192 188 171 167 165 190 192 192 178 170 169 146 137 135 137 140 136 143 144 144 151 154 152 157 155 158 163 171 168 169 171 176 176 169 158 150 163 162 142 229 130 98 81 62 58 56 46 31 27 27 26 24 25 24 15 10 11 33 45 52 53 52 52 55 57 51 46 48 40 46 64 74 76 68 48 40 20 41 58 37 44 37 44 62 352 338 356
210 183 161 182 176 148 168 171 159 156 167 156 151 158 156 155 152 154 148 144 150 154 162 168 167 161 168 175 179 176 178 183 180 179 179 177 189 186 196 225 114 55 60 62 65 69 57 36 34 31 36 31 26 27 19 16 17 27 28 47 52 58 53 49 40 47 54 57 53 43 49 69 86 92 92 68 55 48 54 57 50 52 54 47 36 31 13
5 158 166 175 164 116 135 144 145 155 167 164 155 154 155 157 158 164 158 158 155 154 161 177 181 167 167 170 177 179 179 181 178 196 210 224 249 278 264 275 332 351 31 38 44 52 75 61 48 28 25 33 29 33 27 19 17 28 31 38 46 41 42 47 51 45 45 49 55 66 58 49 60 91 108 106 90 69 70 66 70 67 66 62 57 57 42
150 129 171 165 121 80 91 131 142 150 166 168 153 156 158 155 161 165 154 148 152 153 155 166 166 171 168 168 182 176 177 185 193 195 200 224 247 269 289 298 306 342 0 7 2 12 29 54 84 86 48 26 12 22 30 29 22 30 27 27 34 40 39 38 36 34 40 41 38 33 62 67 72 66 82 75 102 109 115 106 77 68 54 50 53 55 57
107 109 118 113 77 95 114 108 119 152 161 164 142 146 153 158 156 160 151 147 144 150 148 149 150 162 169 166 181 169 162 171 183 176 185 205 211 222 242 285 344 345 342 348 346 347 357 3 8 10 29 76 45 2 1 24 28 33 28 28 20 19 29 23 21 23 19 19 23 46 36 38 350 127 344 22 90 107 116 122 151 106 80 57 40 58 66
109 132 122 122 134 139 179 164 167 173 164 168 160 150 150 147 148 133 110 108 118 133 143 138 128 139 142 150 149 151 149 132 152 172 177 178 184 185 169 68 16 7 1 357 350 359 351 353 356 359 357 16 61 49 334 354 0 15 26 21 21 39 34 13 5 8 1 355 344 337 333 328 345 285 248 178 185 175 115 90 76 60 54 63 51 36 46
158 171 166 155 180 186 199 203 113 152 155 159 152 141 140 131 134 137 136 130 126 120 108 126 139 141 135 143 146 139 138 147 138 145 154 147 140 136 145 146 139 144 115 73 26 11 3 359 355 352 355 5 5 6 20 209 275 335 351 353 349 356 355 357 357 354 354 345 333 324 319 320 292 277 256 222 203 183 160 143 128 123 98 61 74 86 81
184 186 106 20 35 100 102 109 125 134 139 143 144 132 142 147 151 153 152 148 142 140 136 141 143 152 145 147 157 145 141 136 133 137 127 127 136 139 144 148 146 142 132 117 91 67 12 360 357 360 4 3 358 0 354 341 268 264 263 299 329 336 342 346 337 343 343 330 321 321 318 309 306 280 254 235 213 197 185 169 155 151 136 141 155 133 146
179 164 144 115 133 136 137 145 146 147 146 151 150 154 156 149 150 153 148 150 156 153 149 145 152 150 148 146 162 159 158 155 143 137 131 125 117 121 130 138 131 128 133 128 118 126 133 100 43 15 11 355 351 348 348 329 314 300 280 261 256 282 296 329 319 314 316 317 321 316 304 311 296 287 276 255 222 207 199 186 175 165 163 167 184 124 114
142 125 134 134 153 161 157 153 146 148 147 155 155 151 158 159 153 148 153 152 160 152 153 162 158 147 161 157 149 136 120 127 128 129 123 130 139 146 152 176 162 141 119 101 101 112 126 120 104 38 18 345 338 335 335 330 327 306 278 271 262 190 204 246 248 291 315 311 308 308 321 314 313 300 289 280 249 217 196 194 183 182 175 171 173 120 82
128 117 121 138 157 164 140 137 146 150 153 155 154 157 163 163 161 161 158 164 169 162 160 166 166 169 161 143 141 144 138 133 134 136 136 134 140 149 162 187 161 89 89 81 84 71 56 53 73 43 355 322 306 296 304 316 318 313 318 299 287 278 186 196 239 222 276 287 299 296 302 305 300 300 290 275 268 244 222 203 187 182 178 161 142 95 63
126 121 126 137 134 153 152 165 159 160 158 166 174 166 167 169 163 162 163 159 152 163 172 176 171 154 148 151 154 153 149 142 138 139 141 132 123 133 149 140 114 108 93 86 77 63 47 33 21 1 347 338 318 295 282 281 286 299 313 311 305 287 272 218 246 269 239 248 254 265 271 270 285 279 281 290 287 269 231 211 189 176 147 112 87 66 39
160 172 177 175 167 167 172 181 179 161 166 163 153 154 157 160 159 154 148 159 162 167 184 176 158 153 156 160 158 156 151 150 156 154 142 134 123 111 104 103 96 92 83 92 96 77 54 26 3 352 345 333 327 324 316 298 291 294 300 304 301 300 287 270 220 241 257 255 251 236 237 254 246 256 255 250 252 224 205 199 191 172 145 119 97 86 63
177 174 161 166 172 169 168 161 171 169 163 162 160 169 160 152 154 150 148 162 178 186 157 140 150 158 162 162 162 164 171 170 151 141 137 129 121 112 111 116 119 125 114 96 79 63 27 11 1 346 332 323 319 313 319 324 315 299 303 296 298 294 295 289 275 261 261 260 250 240 225 229 231 229 243 239 211 191 188 188 188 180 165 145 127 119 103
157 120 123 144 158 156 159 163 167 167 168 169 166 162 166 168 157 152 170 181 144 126 143 149 149 155 160 162 162 161 157 135 131 131 131 125 121 124 114 97 90 83 64 124 79 26 6 6 1 351 333 320 319 316 327 328 301 295 293 291 274 278 279 281 280 277 270 263 253 245 239 225 229 233 219 210 201 198 193 184 186 183 179 159 145 139 135
176 157 150 153 157 164 159 153 159 162 167 162 151 147 145 155 163 142 121 127 143 143 137 136 143 149 144 134 121 115 115 128 130 128 122 120 125 118 107 110 90 99 358 292 43 7 354 349 342 336 334 324 319 320 331 341 324 312 294 284 281 276 276 274 275 272 267 259 260 254 241 222 217 214 210 214 210 200 194 187 181 182 174 156 145 146 145
174 163 155 154 160 164 160 156 155 151 143 135 131 138 146 144 142 140 135 126 122 124 127 128 124 115 113 116 117 120 122 121 124 122 121 114 103 101 85 69 58 356 335 21 358 340 335 323 320 320 319 314 311 313 320 328 328 313 286 287 282 285 282 281 277 266 262 260 257 254 250 247 244 230 220 215 207 202 198 189 180 177 166 158 152 150 156
141 129 123 126 136 136 130 130 148 153 156 151 140 118 115 121 125 124 119 117 119 127 121 114 117 122 124 125 121 123 125 127 127 128 121 95 68 81 85 73 60 27 2 336 324 323 315 320 323 317 317 316 317 313 317 323 324 308 292 284 282 274 275 272 275 276 276 272 265 259 254 250 249 251 240 228 215 193 189 183 174 172 170 167 167 167 160
158 159 152 148 149 144 141 146 155 156 155 144 143 142 144 134 132 123 119 121 127 134 127 131 131 131 137 137 138 137 131 116 104 111 112 111 109 119 128 121 88 47 9 325 324 326 328 319 314 310 315 319 316 317 317 323 318 305 294 284 278 276 275 275 275 274 269 266 261 255 254 250 251 252 252 237 207 200 189 171 172 172 169 164 169 163 156
166 153 150 153 149 153 149 147 147 143 139 137 126 129 142 137 132 127 132 131 136 136 133 138 136 134 144 149 139 123 112 110 117 118 131 145 121 108 200 151 69 26 4 348 348 335 334 332 327 325 340 335 338 341 328 336 313 304 291 279 272 269 271 270 271 270 271 270 271 270 265 259 237 239 236 223 211 181 177 168 172 175 176 170 173 165 153
162 151 149 148 147 148 141 132 127 125 121 123 127 129 133 137 134 130 127 125 127 129 124 126 128 133 127 110 107 112 114 114 113 103 82 57 70 148 225 115 56 18 352 341 3 355 6 14 6 352 346 349 359 4 342 333 330 332 329 327 307 294 286 288 282 285 289 289 287 278 273 258 244 235 216 188 176 176 173 179 178 163 161 164 164 162 155
155 156 156 152 148 145 142 145 144 133 127 129 136 135 133 124 114 117 123 125 126 126 121 120 116 113 116 122 125 123 120 123 118 112 101 79 58 16 3 51 20 22 0 15 360 356 10 32 18 32 16 2 3 352 333 345 356 356 355 352 350 346 341 333 334 325 313 309 305 299 285 267 258 243 229 216 198 184 178 175 168 156 152 148 141 143 143
161 157 149 146 147 146 140 132 127 127 128 136 139 134 130 124 127 129 132 132 130 131 133 132 133 133 132 133 141 144 146 146 144 144 149 146 158 174 229 344 2 25 20 15 16 7 17 29 37 19 5 6 8 349 330 333 337 348 357 360 360 359 1 0 7 360 2 357 333 328 324 308 284 259 231 207 186 170 159 159 151 150 151 142 142 140 139
159 154 153 148 143 142 144 144 149 146 134 132 135 131 128 127 128 131 134 136 139 138 142 144 146 146 150 157 150 127 124 126 131 158 164 149 156 125 126 194 68 45 53 20 29 29 32 31 24 12 14 9 6 347 341 352 344 350 341 339 336 333 327 334 340 350 9 13 31 18 17 9 356 316 250 106 98 108 108 111 102 103 115 124 132 139 141
149 143 139 136 146 151 148 137 121 118 124 127 122 119 125 130 131 133 138 143 148 151 152 153 156 153 143 126 117 122 126 129 133 98 60 42 68 98 118 134 107 80 74 88 54 36 44 23 9 9 7 13 357 342 7 357 357 3 359 348 351 348 345 347 345 343 4 18 51 60 69 77 74 76 77 84 91 97 104 111 107 108 112 125 123 122 126
142 141 145 141 131 128 125 124 127 128 129 133 138 144 144 137 138 142 144 145 142 134 132 134 135 136 144 144 147 148 147 140 140 153 157 136 132 134 129 154 159 157 179 128 36 30 21 16 5 360 352 2 357 340 348 352 360 355 353 352 360 9 16 30 23 34 46 53 53 71 78 75 94 114 117 116 118 121 128 130 127 129 130 124 125 125 129
147 146 144 138 135 134 130 132 137 143 150 151 147 138 142 143 140 134 134 132 128 127 128 124 126 132 136 135 131 126 141 156 151 149 167 159 149 147 165 177 122 104 113 141 129 84 52 30 15 3 9 352 330 337 330 327 325 322 330 9 18 35 25 25 28 38 45 58 53 50 61 68 77 80 96 117 128 143 150 155 153 150 153 153 151 147 144
139 135 134 132 134 140 141 142 141 142 143 134 133 136 141 138 133 134 137 135 136 137 136 132 134 136 139 132 132 127 119 56 22 110 145 157 154 158 142 134 139 160 186 130 109 120 51 16 355 339 350 347 348 335 309 324 338 333 343 25 38 36 35 52 46 43 46 49 44 34 35 52 64 76 82 80 87 105 126 143 151 170 171 170 164 167 170
132 129 134 142 145 148 146 145 148 145 139 145 145 143 148 146 150 153 153 155 151 143 142 144 148 149 150 152 156 146 144 146 130 127 144 150 149 152 137 141 136 143 141 94 80 48 73 7 317 336 314 311 341 328 308 299 279 245 121 104 45 81 67 57 81 53 354 17 358 54 73 59 67 81 100 125 121 127 124 129 133 115 122 169 191 190 189
149 150 149 148 146 142 144 145 144 143 152 151 145 144 147 160 154 149 156 152 150 152 149 146 149 155 158 159 159 157 156 163 153 155 150 154 163 146 145 153 156 164 153 178 36 9 357 355 1 341 275 329 328 320 281 239 280 226 228 233 233 275 179 206 257 297 328 336 334 338 351 37 100 144 167 107 129 135 135 138 139 142 155 178 189 193 189
147 135 130 131 129 135 140 135 137 144 135 134 139 149 159 157 150 151 150 157 162 161 159 157 163 169 169 162 163 162 161 164 160 157 158 156 156 157 152 183 190 179 199 217 9 342 357 24 22 15 340 324 345 349 72 195 241 310 150 210 238 240 286 313 292 291 297 254 282 324 346 330 330 227 209 183 174 164 184 215 213 198 195 190 197 204 198